"read_dt","SO2 (ppb)","flags","PMT voltage (V)","lamp voltage (V)","lamp intensity (Hz)","internal temp (C)","react chamber temp (C)","sample flow (l/min)","pres (mmHg)","SO2 bkg (ppb)","SO2 coefficient"
2015-11-20 00:00:00,1817E-3,5C000400,-0724,0830,11183,022.8,045.3,0.266,764.3,01.16,0.508
2015-11-20 00:01:00,1978E-3,5C000400,-0724,0835,12706,022.8,045.3,0.266,764.4,01.16,0.508
2015-11-20 00:02:00,1869E-3,5C000400,-0724,0830,12573,022.7,045.3,0.266,764.4,01.16,0.508
2015-11-20 00:03:00,1933E-3,5C000400,-0724,0832,12456,022.7,045.3,0.266,764.2,01.16,0.508
2015-11-20 00:04:00,2150E-3,5C000400,-0724,0829,12251,022.8,045.3,0.266,764.3,01.16,0.508
2015-11-20 00:05:00,2096E-3,5C000400,-0724,0829,12289,022.8,045.3,0.266,764.4,01.16,0.508
2015-11-20 00:06:00,2036E-3,5C000400,-0724,0828,12198,022.7,045.3,0.266,764.2,01.16,0.508
2015-11-20 00:07:00,2040E-3,5C000400,-0724,0829,12350,022.7,045.3,0.266,764.2,01.16,0.508
2015-11-20 00:08:00,2017E-3,5C000400,-0724,0828,11120,022.8,045.3,0.266,764.3,01.16,0.508
2015-11-20 00:09:00,2058E-3,5C000400,-0724,0828,12248,022.7,045.3,0.266,764.2,01.16,0.508
2015-11-20 00:10:00,2035E-3,5C000400,-0724,0828,12185,022.8,045.3,0.266,764.3,01.16,0.508
2015-11-20 00:11:00,2023E-3,5C000400,-0724,0829,12280,022.8,045.3,0.266,764.4,01.16,0.508
2015-11-20 00:12:00,2221E-3,5C000400,-0724,0828,11035,022.8,045.3,0.266,764.4,01.16,0.508
2015-11-20 00:13:00,2008E-3,5C000400,-0724,0828,12287,022.8,045.3,0.266,764.3,01.16,0.508
2015-11-20 00:14:00,1931E-3,5C000400,-0724,0828,12350,022.8,045.3,0.266,764.5,01.16,0.508
2015-11-20 00:15:00,2037E-3,5C000400,-0724,0828,12324,022.8,045.3,0.266,764.4,01.16,0.508
2015-11-20 00:16:00,2056E-3,5C000400,-0724,0832,12278,022.7,045.3,0.266,764.4,01.16,0.508
2015-11-20 00:17:00,1967E-3,5C000400,-0724,0828,12292,022.7,045.3,0.266,764.5,01.16,0.508
2015-11-20 00:18:00,1879E-3,5C000400,-0724,0828,12227,022.8,045.3,0.266,764.3,01.16,0.508
2015-11-20 00:19:00,2114E-3,5C000400,-0724,0828,12272,022.7,045.3,0.266,764.5,01.16,0.508
2015-11-20 00:20:00,2007E-3,5C000400,-0724,0828,12376,022.7,045.3,0.266,764.4,01.16,0.508
2015-11-20 00:21:00,2072E-3,5C000400,-0724,0828,12227,022.8,045.3,0.265,764.5,01.16,0.508
2015-11-20 00:22:00,2101E-3,5C000400,-0724,0829,12162,022.7,045.3,0.265,764.4,01.16,0.508
2015-11-20 00:23:00,2031E-3,5C000400,-0724,0828,12195,022.8,045.3,0.266,764.3,01.16,0.508
2015-11-20 00:24:00,2055E-3,5C000400,-0724,0829,12234,022.8,045.3,0.266,764.4,01.16,0.508
2015-11-20 00:25:00,1968E-3,5C000400,-0724,0830,12254,022.8,045.3,0.266,764.2,01.16,0.508
2015-11-20 00:26:00,2001E-3,5C000400,-0724,0829,12151,022.7,045.3,0.266,764.4,01.16,0.508
2015-11-20 00:27:00,2002E-3,5C000400,-0724,0830,12603,022.8,045.3,0.266,764.6,01.16,0.508
2015-11-20 00:28:00,1876E-3,5C000400,-0724,0831,11319,022.8,045.3,0.266,764.3,01.16,0.508
2015-11-20 00:29:00,2123E-3,5C000400,-0724,0829,12198,022.8,045.3,0.266,764.5,01.16,0.508
2015-11-20 00:30:00,1939E-3,5C000400,-0724,0828,11026,022.7,045.3,0.266,764.4,01.16,0.508
2015-11-20 00:31:00,2043E-3,5C000400,-0724,0828,12461,022.7,045.3,0.266,764.4,01.16,0.508
2015-11-20 00:32:00,1985E-3,5C000400,-0724,0830,11276,022.7,045.3,0.266,764.5,01.16,0.508
2015-11-20 00:33:00,1998E-3,5C000400,-0724,0832,11285,022.7,045.3,0.266,764.4,01.16,0.508
2015-11-20 00:34:00,1919E-3,5C000400,-0724,0836,12433,022.7,045.3,0.266,764.5,01.16,0.508
2015-11-20 00:35:00,2169E-3,5C000400,-0724,0830,12458,022.7,045.3,0.266,764.5,01.16,0.508
2015-11-20 00:36:00,2030E-3,5C000400,-0724,0830,12531,022.7,045.3,0.266,764.5,01.16,0.508
2015-11-20 00:37:00,2048E-3,5C000400,-0724,0828,11165,022.7,045.3,0.266,764.6,01.16,0.508
2015-11-20 00:38:00,1938E-3,5C000400,-0724,0828,11070,022.7,045.3,0.266,764.5,01.16,0.508
2015-11-20 00:39:00,2085E-3,5C000400,-0724,0830,12385,022.7,045.3,0.266,764.4,01.16,0.508
2015-11-20 00:40:00,2112E-3,5C000400,-0724,0829,12214,022.7,045.3,0.266,764.6,01.16,0.508
2015-11-20 00:41:00,2084E-3,5C000400,-0724,0828,11210,022.8,045.3,0.266,764.4,01.16,0.508
2015-11-20 00:42:00,2095E-3,5C000400,-0724,0831,12161,022.7,045.3,0.266,764.4,01.16,0.508
2015-11-20 00:43:00,1967E-3,5C000400,-0724,0829,12242,022.7,045.3,0.266,764.6,01.16,0.508
2015-11-20 00:44:00,2176E-3,5C000400,-0724,0828,12272,022.7,045.3,0.266,764.4,01.16,0.508
2015-11-20 00:45:00,2116E-3,5C000400,-0724,0830,12466,022.7,045.3,0.266,764.5,01.16,0.508
2015-11-20 00:46:00,1928E-3,5C000400,-0724,0830,12178,022.7,045.3,0.266,764.4,01.16,0.508
2015-11-20 00:47:00,2070E-3,5C000400,-0724,0829,12372,022.8,045.3,0.266,764.5,01.16,0.508
2015-11-20 00:48:00,2040E-3,5C000400,-0724,0829,12363,022.8,045.3,0.266,764.3,01.16,0.508
2015-11-20 00:49:00,2026E-3,5C000400,-0724,0828,12349,022.7,045.3,0.266,764.4,01.16,0.508
2015-11-20 00:50:00,2001E-3,5C000400,-0724,0826,11074,022.7,045.3,0.266,764.5,01.16,0.508
2015-11-20 00:51:00,2041E-3,5C000400,-0724,0828,11195,022.8,045.3,0.266,764.4,01.16,0.508
2015-11-20 00:52:00,2001E-3,5C000400,-0724,0830,12351,022.7,045.3,0.266,764.4,01.16,0.508
2015-11-20 00:53:00,1933E-3,5C000400,-0724,0830,12271,022.7,045.3,0.266,764.5,01.16,0.508
2015-11-20 00:54:00,1994E-3,5C000400,-0724,0828,12202,022.7,045.3,0.266,764.3,01.16,0.508
2015-11-20 00:55:00,2062E-3,5C000400,-0724,0829,12130,022.7,045.3,0.266,764.5,01.16,0.508
2015-11-20 00:56:00,2025E-3,5C000400,-0724,0830,12305,022.7,045.3,0.266,764.2,01.16,0.508
2015-11-20 00:57:00,1887E-3,5C000400,-0724,0828,11160,022.8,045.3,0.266,764.4,01.16,0.508
2015-11-20 00:58:00,1867E-3,5C000400,-0724,0829,12135,022.7,045.3,0.266,764.4,01.16,0.508
2015-11-20 00:59:00,2117E-3,5C000400,-0724,0828,12234,022.7,045.3,0.266,764.5,01.16,0.508
2015-11-20 01:00:00,2041E-3,5C000400,-0724,0829,12170,022.7,045.3,0.265,764.5,01.16,0.508
2015-11-20 01:01:00,2055E-3,5C000400,-0724,0829,12296,022.7,045.3,0.265,764.5,01.16,0.508
2015-11-20 01:02:00,2076E-3,5C000400,-0724,0829,12304,022.8,045.3,0.265,764.5,01.16,0.508
2015-11-20 01:03:00,2102E-3,5C000400,-0724,0829,12301,022.7,045.3,0.266,764.4,01.16,0.508
2015-11-20 01:04:00,2035E-3,5C000400,-0724,0829,12327,022.7,045.3,0.266,764.4,01.16,0.508
2015-11-20 01:05:00,2042E-3,5C000400,-0724,0829,12248,022.8,045.3,0.266,764.6,01.16,0.508
2015-11-20 01:06:00,2132E-3,5C000400,-0724,0829,12156,022.7,045.3,0.266,764.5,01.16,0.508
2015-11-20 01:07:00,2015E-3,5C000400,-0724,0828,11126,022.7,045.3,0.266,764.6,01.16,0.508
2015-11-20 01:08:00,2037E-3,5C000400,-0724,0828,12114,022.7,045.3,0.266,764.5,01.16,0.508
2015-11-20 01:09:00,2189E-3,5C000400,-0724,0829,12084,022.7,045.3,0.266,764.6,01.16,0.508
2015-11-20 01:10:00,2085E-3,5C000400,-0724,0829,12148,022.7,045.3,0.266,764.5,01.16,0.508
2015-11-20 01:11:00,2026E-3,5C000400,-0724,0829,12241,022.8,045.3,0.266,764.6,01.16,0.508
2015-11-20 01:12:00,2123E-3,5C000400,-0724,0829,12294,022.7,045.3,0.266,764.6,01.16,0.508
2015-11-20 01:13:00,2098E-3,5C000400,-0724,0829,12361,022.7,045.3,0.266,764.6,01.16,0.508
2015-11-20 01:14:00,2059E-3,5C000400,-0724,0829,12311,022.7,045.3,0.266,764.6,01.16,0.508
2015-11-20 01:15:00,2006E-3,5C000400,-0724,0830,12266,022.7,045.3,0.266,764.6,01.16,0.508
2015-11-20 01:16:00,2106E-3,5C000400,-0724,0829,12370,022.7,045.3,0.266,764.6,01.16,0.508
2015-11-20 01:17:00,2218E-3,5C000400,-0724,0829,12250,022.7,045.3,0.266,764.7,01.16,0.508
2015-11-20 01:18:00,1990E-3,5C000400,-0724,0830,10849,022.7,045.3,0.266,764.7,01.16,0.508
2015-11-20 01:19:00,2089E-3,5C000400,-0724,0829,11065,022.7,045.3,0.266,764.6,01.16,0.508
2015-11-20 01:20:00,2101E-3,5C000400,-0724,0828,11980,022.7,045.3,0.266,764.6,01.16,0.508
2015-11-20 01:21:00,2041E-3,5C000400,-0724,0834,12317,022.7,045.3,0.266,764.6,01.16,0.508
2015-11-20 01:22:00,2179E-3,5C000400,-0724,0829,12208,022.7,045.3,0.266,764.8,01.16,0.508
2015-11-20 01:23:00,1856E-3,5C000400,-0724,0835,12662,022.7,045.3,0.266,764.7,01.16,0.508
2015-11-20 01:24:00,2072E-3,5C000400,-0724,0830,11231,022.7,045.3,0.266,764.7,01.16,0.508
2015-11-20 01:25:00,2168E-3,5C000400,-0724,0832,12189,022.6,045.3,0.266,764.6,01.16,0.508
2015-11-20 01:26:00,2139E-3,5C000400,-0724,0829,12330,022.6,045.3,0.266,764.6,01.16,0.508
2015-11-20 01:27:00,2083E-3,5C000400,-0724,0829,12172,022.7,045.3,0.266,764.6,01.16,0.508
2015-11-20 01:28:00,2067E-3,5C000400,-0724,0831,12428,022.7,045.3,0.266,764.6,01.16,0.508
2015-11-20 01:29:00,2035E-3,5C000400,-0724,0829,12270,022.6,045.3,0.266,764.6,01.16,0.508
2015-11-20 01:30:00,2119E-3,5C000400,-0724,0827,12321,022.6,045.3,0.266,764.6,01.16,0.508
2015-11-20 01:31:00,2017E-3,5C000400,-0724,0830,12415,022.7,045.3,0.266,764.4,01.16,0.508
2015-11-20 01:32:00,2149E-3,5C000400,-0724,0829,12357,022.6,045.3,0.266,764.5,01.16,0.508
2015-11-20 01:33:00,2189E-3,5C000400,-0724,0828,12285,022.6,045.3,0.266,764.5,01.16,0.508
2015-11-20 01:34:00,2114E-3,5C000400,-0724,0837,11197,022.7,045.3,0.266,764.3,01.16,0.508
2015-11-20 01:35:00,2021E-3,5C000400,-0724,0829,12394,022.6,045.3,0.266,764.6,01.16,0.508
2015-11-20 01:36:00,1989E-3,5C000400,-0724,0834,12513,022.7,045.3,0.266,764.7,01.16,0.508
2015-11-20 01:37:00,2047E-3,5C000400,-0724,0832,12479,022.7,045.3,0.266,764.7,01.16,0.508
2015-11-20 01:38:00,2197E-3,5C000400,-0724,0830,12338,022.6,045.3,0.266,764.5,01.16,0.508
2015-11-20 01:39:00,2057E-3,5C000400,-0724,0830,11146,022.7,045.3,0.266,764.6,01.16,0.508
2015-11-20 01:40:00,2025E-3,5C000400,-0724,0829,12350,022.7,045.3,0.266,764.6,01.16,0.508
2015-11-20 01:41:00,2060E-3,5C000400,-0724,0831,12323,022.7,045.3,0.266,764.0,01.16,0.508
2015-11-20 01:42:00,2088E-3,5C000400,-0724,0830,12165,022.7,045.3,0.266,764.7,01.16,0.508
2015-11-20 01:43:00,1970E-3,5C000410,-0724,0828,11223,022.7,045.3,0.266,764.7,01.16,0.508
2015-11-20 01:44:00,2055E-3,5C000400,-0724,0831,12344,022.7,045.3,0.266,764.7,01.16,0.508
2015-11-20 01:45:00,2056E-3,5C000400,-0724,0831,12342,022.7,045.3,0.266,764.5,01.16,0.508
2015-11-20 01:46:00,2039E-3,5C000400,-0724,0835,12537,022.7,045.3,0.266,764.7,01.16,0.508
2015-11-20 01:47:00,2201E-3,5C000400,-0724,0831,12621,022.7,045.3,0.266,764.8,01.16,0.508
2015-11-20 01:48:00,2003E-3,5C000400,-0724,0832,11534,022.7,045.3,0.266,764.6,01.16,0.508
2015-11-20 01:49:00,2035E-3,5C000400,-0724,0831,11225,022.7,045.3,0.266,764.6,01.16,0.508
2015-11-20 01:50:00,1850E-3,5C000400,-0724,0832,12554,022.7,045.3,0.266,764.8,01.16,0.508
2015-11-20 01:51:00,1987E-3,5C000400,-0724,0835,12880,022.7,045.3,0.266,764.8,01.16,0.508
2015-11-20 01:52:00,2162E-3,5C000400,-0724,0830,11227,022.7,045.3,0.266,764.7,01.16,0.508
2015-11-20 01:53:00,2069E-3,5C000400,-0724,0830,11271,022.7,045.3,0.266,764.6,01.16,0.508
2015-11-20 01:54:00,2076E-3,5C000400,-0724,0831,12619,022.7,045.3,0.266,764.8,01.16,0.508
2015-11-20 01:55:00,2138E-3,5C000400,-0724,0829,12359,022.7,045.3,0.266,764.8,01.16,0.508
2015-11-20 01:56:00,2155E-3,5C000400,-0724,0830,11218,022.7,045.3,0.266,764.8,01.16,0.508
2015-11-20 01:57:00,2172E-3,5C000400,-0724,0829,12375,022.7,045.3,0.266,764.7,01.16,0.508
2015-11-20 01:58:00,2188E-3,5C000400,-0724,0829,12291,022.7,045.3,0.266,764.8,01.16,0.508
2015-11-20 01:59:00,2161E-3,5C000400,-0724,0829,12416,022.7,045.3,0.266,764.6,01.16,0.508
2015-11-20 02:00:00,2122E-3,5C000400,-0724,0834,12409,022.7,045.3,0.266,764.8,01.16,0.508
2015-11-20 02:01:00,2096E-3,5C000400,-0724,0832,12525,022.7,045.3,0.266,764.7,01.16,0.508
2015-11-20 02:02:00,1960E-3,5C000400,-0724,0837,12545,022.7,045.3,0.266,764.7,01.16,0.508
2015-11-20 02:03:00,2153E-3,5C000400,-0724,0830,12579,022.7,045.3,0.266,764.6,01.16,0.508
2015-11-20 02:04:00,1941E-3,5C000400,-0724,0835,12792,022.7,045.3,0.266,764.5,01.16,0.508
2015-11-20 02:05:00,1939E-3,5C000400,-0724,0834,11489,022.7,045.3,0.266,764.7,01.16,0.508
2015-11-20 02:06:00,2188E-3,5C000400,-0724,0833,12606,022.7,045.3,0.266,764.7,01.16,0.508
2015-11-20 02:07:00,2107E-3,5C000400,-0724,0830,12376,022.7,045.3,0.266,764.6,01.16,0.508
2015-11-20 02:08:00,2063E-3,5C000400,-0724,0831,11108,022.7,045.3,0.266,764.7,01.16,0.508
2015-11-20 02:09:00,2076E-3,5C000400,-0724,0830,12217,022.7,045.3,0.266,764.6,01.16,0.508
2015-11-20 02:10:00,2074E-3,5C000400,-0724,0829,11351,022.7,045.3,0.266,764.7,01.16,0.508
2015-11-20 02:11:00,2096E-3,5C000400,-0724,0831,12556,022.7,045.3,0.266,764.6,01.16,0.508
2015-11-20 02:12:00,2073E-3,5C000400,-0724,0829,12242,022.7,045.3,0.266,764.6,01.16,0.508
2015-11-20 02:13:00,1980E-3,5C000400,-0724,0830,12360,022.7,045.3,0.266,764.4,01.16,0.508
2015-11-20 02:14:00,2305E-3,5C000400,-0724,0830,12378,022.7,045.3,0.266,764.6,01.16,0.508
2015-11-20 02:15:00,2069E-3,5C000400,-0724,0832,11161,022.7,045.3,0.266,764.5,01.16,0.508
2015-11-20 02:16:00,2002E-3,5C000400,-0724,0828,12198,022.7,045.3,0.266,764.5,01.16,0.508
2015-11-20 02:17:00,2016E-3,5C000400,-0724,0832,11406,022.7,045.3,0.266,764.6,01.16,0.508
2015-11-20 02:18:00,2093E-3,5C000400,-0724,0833,10097,022.7,045.3,0.266,764.5,01.16,0.508
2015-11-20 02:19:00,2042E-3,5C000400,-0724,0829,12400,022.7,045.3,0.266,764.5,01.16,0.508
2015-11-20 02:20:00,2088E-3,5C000400,-0724,0827,12212,022.7,045.3,0.266,764.6,01.16,0.508
2015-11-20 02:21:00,2080E-3,5C000400,-0724,0830,11230,022.7,045.3,0.266,764.5,01.16,0.508
2015-11-20 02:22:00,2002E-3,5C000400,-0724,0830,12349,022.7,045.3,0.266,764.6,01.16,0.508
2015-11-20 02:23:00,1992E-3,5C000400,-0724,0831,12291,022.7,045.3,0.266,764.6,01.16,0.508
2015-11-20 02:24:00,1954E-3,5C000400,-0724,0833,12584,022.7,045.3,0.266,764.5,01.16,0.508
2015-11-20 02:25:00,1879E-3,5C000400,-0724,0830,12373,022.7,045.3,0.266,764.5,01.16,0.508
2015-11-20 02:26:00,2029E-3,5C000400,-0724,0830,12234,022.7,045.3,0.266,764.4,01.16,0.508
2015-11-20 02:27:00,1947E-3,5C000400,-0724,0839,8954,022.7,045.3,0.266,764.5,01.16,0.508
2015-11-20 02:28:00,1952E-3,5C000400,-0724,0835,12571,022.7,045.3,0.266,764.4,01.16,0.508
2015-11-20 02:29:00,2126E-3,5C000400,-0724,0832,11422,022.7,045.3,0.266,764.4,01.16,0.508
2015-11-20 02:30:00,1989E-3,5C000400,-0724,0833,12555,022.7,045.3,0.266,764.4,01.16,0.508
2015-11-20 02:31:00,1977E-3,5C000400,-0724,0833,12638,022.7,045.3,0.266,764.4,01.16,0.508
2015-11-20 02:32:00,1902E-3,5C000400,-0724,0831,10018,022.7,045.3,0.266,764.4,01.16,0.508
2015-11-20 02:33:00,2004E-3,5C000400,-0724,0832,12641,022.7,045.3,0.266,764.4,01.16,0.508
2015-11-20 02:34:00,2050E-3,5C000400,-0724,0834,11438,022.7,045.3,0.266,764.3,01.16,0.508
2015-11-20 02:35:00,2108E-3,5C000400,-0724,0834,11327,022.7,045.3,0.266,764.3,01.16,0.508
2015-11-20 02:36:00,2012E-3,5C000400,-0724,0836,11521,022.7,045.3,0.266,764.2,01.16,0.508
2015-11-20 02:37:00,1943E-3,5C000400,-0724,0834,10091,022.7,045.3,0.266,764.2,01.16,0.508
2015-11-20 02:38:00,1844E-3,5C000400,-0724,0833,12713,022.7,045.3,0.266,764.1,01.16,0.508
2015-11-20 02:39:00,2016E-3,5C000400,-0724,0831,11420,022.7,045.3,0.266,764.1,01.16,0.508
2015-11-20 02:40:00,1795E-3,5C000400,-0724,0838,10291,022.7,045.3,0.267,764.1,01.16,0.508
2015-11-20 02:41:00,1790E-3,5C000400,-0724,0836,10229,022.7,045.3,0.267,764.0,01.16,0.508
2015-11-20 02:42:00,1990E-3,5C000400,-0724,0834,12552,022.7,045.3,0.266,764.2,01.16,0.508
2015-11-20 02:43:00,2040E-3,5C000400,-0724,0838,11421,022.7,045.3,0.266,764.1,01.16,0.508
2015-11-20 02:44:00,2016E-3,5C000400,-0724,0830,12399,022.7,045.3,0.266,764.1,01.16,0.508
2015-11-20 02:45:00,1895E-3,5C000400,-0724,0831,11152,022.7,045.3,0.266,764.2,01.16,0.508
2015-11-20 02:46:00,1971E-3,5C000400,-0724,0833,12690,022.7,045.3,0.266,764.1,01.16,0.508
2015-11-20 02:47:00,1997E-3,5C000400,-0724,0834,12562,022.7,045.3,0.266,764.1,01.16,0.508
2015-11-20 02:48:00,1934E-3,5C000400,-0724,0830,9930,022.7,045.3,0.266,764.0,01.16,0.508
2015-11-20 02:49:00,1970E-3,5C000400,-0724,0831,12435,022.7,045.3,0.266,763.9,01.16,0.508
2015-11-20 02:50:00,1888E-3,5C000400,-0724,0831,12339,022.7,045.3,0.266,764.1,01.16,0.508
2015-11-20 02:51:00,2026E-3,5C000400,-0724,0833,12431,022.7,045.3,0.266,763.9,01.16,0.508
2015-11-20 02:52:00,2075E-3,5C000400,-0724,0835,11573,022.7,045.3,0.266,764.0,01.16,0.508
2015-11-20 02:53:00,1988E-3,5C000400,-0724,0833,12664,022.7,045.3,0.266,764.0,01.16,0.508
2015-11-20 02:54:00,1921E-3,5C000400,-0724,0835,10172,022.7,045.3,0.266,763.9,01.16,0.508
2015-11-20 02:55:00,1739E-3,5C000400,-0724,0833,12741,022.7,045.3,0.266,763.8,01.16,0.508
2015-11-20 02:56:00,1771E-3,5C000400,-0724,0834,12434,022.7,045.3,0.266,763.9,01.16,0.508
2015-11-20 02:57:00,1980E-3,5C000400,-0724,0834,12663,022.7,045.3,0.266,763.8,01.16,0.508
2015-11-20 02:58:00,1900E-3,5C000400,-0724,0836,11555,022.7,045.3,0.266,763.7,01.16,0.508
2015-11-20 02:59:00,1927E-3,5C000400,-0724,0835,12587,022.7,045.3,0.266,763.6,01.16,0.508
2015-11-20 03:00:00,2125E-3,5C000400,-0724,0834,12774,022.7,045.3,0.266,763.6,01.16,0.508
2015-11-20 03:01:00,1752E-3,5C000400,-0724,0830,10125,022.7,045.3,0.266,763.8,01.16,0.508
2015-11-20 03:02:00,1850E-3,5C000400,-0724,0831,10070,022.7,045.3,0.266,763.9,01.16,0.508
2015-11-20 03:03:00,1958E-3,5C000400,-0724,0832,12431,022.7,045.3,0.266,764.1,01.16,0.508
2015-11-20 03:04:00,2028E-3,5C000400,-0724,0832,10033,022.7,045.3,0.266,764.2,01.16,0.508
2015-11-20 03:05:00,1782E-3,5C000400,-0724,0835,11526,022.7,045.3,0.266,764.2,01.16,0.508
2015-11-20 03:06:00,1973E-3,5C000400,-0724,0835,10167,022.7,045.3,0.266,764.2,01.16,0.508
2015-11-20 03:07:00,1858E-3,5C000400,-0724,0835,11489,022.6,045.3,0.266,764.3,01.16,0.508
2015-11-20 03:08:00,1890E-3,5C000400,-0724,0834,11391,022.7,045.3,0.266,764.2,01.16,0.508
2015-11-20 03:09:00,1746E-3,5C000400,-0724,0833,11339,022.7,045.3,0.266,764.2,01.16,0.508
2015-11-20 03:10:00,1974E-3,5C000400,-0724,0834,10296,022.7,045.3,0.266,764.3,01.16,0.508
2015-11-20 03:11:00,1935E-3,5C000400,-0724,0835,11410,022.7,045.3,0.266,764.2,01.16,0.508
2015-11-20 03:12:00,1951E-3,5C000400,-0724,0835,12626,022.7,045.3,0.266,764.2,01.16,0.508
2015-11-20 03:13:00,1886E-3,5C000400,-0724,0833,11409,022.6,045.3,0.266,764.3,01.16,0.508
2015-11-20 03:14:00,1895E-3,5C000400,-0724,0837,12674,022.6,045.3,0.266,764.2,01.16,0.508
2015-11-20 03:15:00,1935E-3,5C000410,-0724,0831,12704,022.7,045.3,0.266,764.1,01.16,0.508
2015-11-20 03:16:00,1812E-3,5C000400,-0724,0842,12936,022.7,045.3,0.266,764.0,01.16,0.508
2015-11-20 03:17:00,1729E-3,5C000400,-0724,0841,11552,022.7,045.3,0.266,764.0,01.16,0.508
2015-11-20 03:18:00,1977E-3,5C000400,-0724,0836,12861,022.6,045.3,0.266,764.0,01.16,0.508
2015-11-20 03:19:00,1973E-3,5C000400,-0724,0833,11361,022.7,045.3,0.266,763.9,01.16,0.508
2015-11-20 03:20:00,1835E-3,5C000400,-0724,0834,12513,022.7,045.3,0.266,764.0,01.16,0.508
2015-11-20 03:21:00,1961E-3,5C000400,-0724,0836,11289,022.7,045.3,0.266,764.1,01.16,0.508
2015-11-20 03:22:00,1815E-3,5C000400,-0724,0835,10233,022.7,045.3,0.266,764.1,01.16,0.508
2015-11-20 03:23:00,1883E-3,5C000400,-0724,0834,11304,022.7,045.3,0.266,764.1,01.16,0.508
2015-11-20 03:24:00,1928E-3,5C000400,-0724,0837,11665,022.6,045.3,0.266,764.2,01.16,0.508
2015-11-20 03:25:00,1889E-3,5C000400,-0724,0838,10335,022.7,045.3,0.266,764.3,01.16,0.508
2015-11-20 03:26:00,1888E-3,5C000410,-0724,0844,10621,022.7,045.3,0.266,764.1,01.16,0.508
2015-11-20 03:27:00,1742E-3,5C000400,-0724,0837,10257,022.7,045.3,0.266,764.0,01.16,0.508
2015-11-20 03:28:00,1937E-3,5C000400,-0724,0838,10296,022.6,045.3,0.266,764.2,01.16,0.508
2015-11-20 03:29:00,1868E-3,5C000400,-0724,0836,11519,022.6,045.3,0.266,764.2,01.16,0.508
2015-11-20 03:30:00,2108E-3,5C000400,-0724,0832,10139,022.6,045.3,0.266,764.1,01.16,0.508
2015-11-20 03:31:00,1949E-3,5C000400,-0724,0834,12589,022.6,045.3,0.267,764.1,01.16,0.508
2015-11-20 03:32:00,2080E-3,5C000400,-0724,0829,12624,022.6,045.3,0.266,763.9,01.16,0.508
2015-11-20 03:33:00,1803E-3,5C000400,-0724,0839,11799,022.7,045.3,0.266,763.9,01.16,0.508
2015-11-20 03:34:00,1943E-3,5C000400,-0724,0836,12647,022.6,045.3,0.266,764.1,01.16,0.508
2015-11-20 03:35:00,1851E-3,5C000400,-0724,0836,11615,022.7,045.3,0.266,764.1,01.16,0.508
2015-11-20 03:36:00,1751E-3,5C000400,-0724,0838,11511,022.7,045.3,0.266,764.0,01.16,0.508
2015-11-20 03:37:00,1870E-3,5C000400,-0724,0836,11659,022.7,045.3,0.266,764.0,01.16,0.508
2015-11-20 03:38:00,2115E-3,5C000400,-0724,0832,11486,022.6,045.3,0.267,763.9,01.16,0.508
2015-11-20 03:39:00,1955E-3,5C000400,-0724,0830,11319,022.6,045.3,0.267,763.8,01.16,0.508
2015-11-20 03:40:00,2001E-3,5C000400,-0724,0832,11366,022.6,045.3,0.267,763.7,01.16,0.508
2015-11-20 03:41:00,2000E-3,5C000400,-0724,0830,11245,022.6,045.3,0.266,763.7,01.16,0.508
2015-11-20 03:42:00,2102E-3,5C000400,-0724,0830,7473,022.6,045.3,0.266,763.8,01.16,0.508
2015-11-20 03:43:00,1852E-3,5C000400,-0724,0838,12689,022.6,045.3,0.266,763.9,01.16,0.508
2015-11-20 03:44:00,2116E-3,5C000400,-0724,0836,11554,022.6,045.3,0.266,764.0,01.16,0.508
2015-11-20 03:45:00,1997E-3,5C000400,-0724,0837,11549,022.6,045.3,0.266,763.8,01.16,0.508
2015-11-20 03:46:00,1991E-3,5C000400,-0724,0831,12552,022.6,045.3,0.266,763.8,01.16,0.508
2015-11-20 03:47:00,2132E-3,5C000400,-0724,0837,11592,022.6,045.3,0.266,763.8,01.16,0.508
2015-11-20 03:48:00,1880E-3,5C000400,-0724,0832,11682,022.6,045.3,0.266,763.9,01.16,0.508
2015-11-20 03:49:00,2033E-3,5C000410,-0724,0836,11500,022.6,045.3,0.266,764.0,01.16,0.508
2015-11-20 03:50:00,1844E-3,5C000400,-0724,0833,11227,022.6,045.3,0.266,763.9,01.16,0.508
2015-11-20 03:51:00,2017E-3,5C000410,-0724,0833,11167,022.6,045.3,0.266,764.1,01.16,0.508
2015-11-20 03:52:00,2191E-3,5C000400,-0724,0835,12473,022.6,045.3,0.266,764.2,01.16,0.508
2015-11-20 03:53:00,1847E-3,5C000400,-0724,0839,11643,022.6,045.3,0.266,764.3,01.16,0.508
2015-11-20 03:54:00,1928E-3,5C000410,-0724,0836,9964,022.6,045.3,0.266,764.3,01.16,0.508
2015-11-20 03:55:00,2192E-3,5C000400,-0724,0828,12443,022.6,045.3,0.266,764.5,01.16,0.508
2015-11-20 03:56:00,2058E-3,5C000400,-0724,0830,12236,022.6,045.3,0.266,764.4,01.16,0.508
2015-11-20 03:57:00,2053E-3,5C000400,-0724,0833,12882,022.6,045.3,0.266,764.4,01.16,0.508
2015-11-20 03:58:00,2084E-3,5C000400,-0724,0833,12463,022.6,045.3,0.266,764.3,01.16,0.508
2015-11-20 03:59:00,2069E-3,5C000400,-0724,0829,12765,022.6,045.3,0.266,764.4,01.16,0.508
2015-11-20 04:00:00,2029E-3,5C000400,-0724,0832,12295,022.6,045.3,0.266,764.2,01.16,0.508
2015-11-20 04:01:00,2103E-3,5C000400,-0724,0831,11103,022.6,045.3,0.266,764.3,01.16,0.508
2015-11-20 04:02:00,2069E-3,5C000400,-0724,0832,11492,022.6,045.3,0.266,764.3,01.16,0.508
2015-11-20 04:03:00,2034E-3,5C000400,-0724,0829,11302,022.6,045.3,0.266,764.4,01.16,0.508
2015-11-20 04:04:00,1911E-3,5C000400,-0724,0829,11267,022.6,045.3,0.266,764.2,01.16,0.508
2015-11-20 04:05:00,2159E-3,5C000400,-0724,0829,12573,022.6,045.3,0.266,764.1,01.16,0.508
2015-11-20 04:06:00,2033E-3,5C000400,-0724,0828,12308,022.6,045.3,0.266,764.1,01.16,0.508
2015-11-20 04:07:00,2070E-3,5C000400,-0724,0827,12387,022.6,045.3,0.266,764.0,01.16,0.508
2015-11-20 04:08:00,2014E-3,5C000400,-0724,0832,10128,022.6,045.3,0.266,764.0,01.16,0.508
2015-11-20 04:09:00,2071E-3,5C000400,-0724,0830,12220,022.6,045.3,0.266,764.1,01.16,0.508
2015-11-20 04:10:00,2028E-3,5C000400,-0724,0828,12571,022.6,045.3,0.266,764.0,01.16,0.508
2015-11-20 04:11:00,1947E-3,5C000400,-0724,0829,12334,022.6,045.3,0.266,764.1,01.16,0.508
2015-11-20 04:12:00,1965E-3,5C000400,-0724,0831,11390,022.6,045.3,0.266,764.2,01.16,0.508
2015-11-20 04:13:00,2058E-3,5C000400,-0724,0831,10217,022.6,045.3,0.266,764.2,01.16,0.508
2015-11-20 04:14:00,1987E-3,5C000400,-0724,0833,10028,022.6,045.3,0.266,764.2,01.16,0.508
2015-11-20 04:15:00,2042E-3,5C000400,-0724,0831,12487,022.6,045.3,0.266,764.2,01.16,0.508
2015-11-20 04:16:00,2089E-3,5C000400,-0724,0830,12641,022.6,045.3,0.266,764.2,01.16,0.508
2015-11-20 04:17:00,2056E-3,5C000400,-0724,0833,12556,022.6,045.3,0.266,764.2,01.16,0.508
2015-11-20 04:18:00,2169E-3,5C000400,-0724,0830,12456,022.5,045.3,0.266,764.1,01.16,0.508
2015-11-20 04:19:00,2127E-3,5C000400,-0724,0831,12451,022.5,045.3,0.266,764.1,01.16,0.508
2015-11-20 04:20:00,2119E-3,5C000410,-0724,0834,6382,022.5,045.3,0.266,763.9,01.16,0.508